Theta_e
311 311 311 311 311 311 310 311 311 311 311 311 311 311 312 311 311 311 311 311 311 311 311 311 311 311 310 310 311 311 311 307 305 303 301 303 307 310 310 313 316 319 318 316 317 317 308 307 306 309 308 308 307 307 310 309 309 307 301 300 298 300 300 304 303 305 307 305 307 308 308 307 305 308 308 310 312 311 316 320 333 335 335 337 341 342 343 343
311 311 311 311 310 311 310 311 311 311 311 312 311 311 311 311 311 311 311 310 311 311 311 311 311 311 310 309 310 311 309 306 302 302 302 311 311 311 313 316 316 315 316 313 312 314 307 304 306 307 306 304 309 305 310 305 309 302 301 300 297 302 304 307 307 307 306 305 308 308 306 307 306 307 309 307 309 312 314 320 331 329 334 337 338 341 341 340
310 311 311 310 310 310 311 311 311 311 311 311 311 311 311 311 311 311 311 311 311 311 311 311 311 310 310 309 310 309 307 303 302 299 312 315 315 315 314 314 313 314 314 313 315 315 309 306 307 306 305 303 306 303 307 305 306 304 302 298 300 305 306 307 308 307 308 308 307 307 307 306 308 308 311 305 306 309 309 312 327 326 331 334 338 339 339 338
310 310 310 311 311 310 311 311 311 311 311 311 311 311 311 311 311 311 311 311 311 310 310 311 310 310 310 309 309 308 305 301 295 302 314 314 313 312 314 313 312 310 313 316 316 317 313 308 308 306 303 302 304 305 302 305 302 304 302 299 302 305 304 306 307 308 308 308 307 307 306 305 307 308 308 306 305 306 309 312 315 322 328 335 338 338 338 337
310 310 310 311 311 311 311 311 311 311 311 311 310 310 311 311 311 311 310 310 310 309 310 310 310 310 309 310 308 308 302 292 294 311 313 313 313 312 313 313 311 307 314 318 318 316 311 307 305 305 303 300 303 303 302 305 306 305 301 303 305 305 303 307 307 307 307 307 306 306 303 304 309 308 306 306 304 304 308 312 317 322 325 332 336 338 337 337
310 310 310 310 310 310 310 310 310 310 311 311 311 310 310 310 310 310 310 310 308 308 309 309 310 310 309 309 307 304 298 283 305 309 313 312 311 310 312 313 309 306 312 317 316 311 307 304 304 301 300 301 300 299 302 304 306 298 303 304 305 306 304 306 306 306 306 305 304 304 306 307 306 305 307 307 306 308 312 313 315 319 325 332 336 338 337 336
309 310 310 310 310 310 310 310 310 310 310 310 310 310 310 309 310 310 310 309 308 308 309 309 310 311 308 309 306 302 296 295 300 309 308 311 309 309 311 310 308 304 306 313 314 308 305 303 303 301 300 300 301 300 302 302 305 302 300 303 303 305 304 306 306 306 305 305 304 306 308 305 305 302 308 306 308 310 312 315 315 316 326 335 335 339 338 337
310 310 310 310 310 310 310 310 310 310 310 310 310 310 309 309 309 309 309 309 308 306 307 309 310 310 308 305 300 297 297 296 303 307 309 308 307 307 308 305 304 303 302 309 312 307 305 302 301 303 300 298 300 300 302 301 303 300 299 303 304 305 305 305 306 306 306 305 307 307 305 304 305 305 307 306 308 310 312 321 317 319 329 335 336 338 338 337
310 310 310 310 310 310 310 310 310 310 310 310 309 309 309 309 309 309 309 308 308 307 306 308 309 309 307 304 299 294 293 302 306 307 307 306 306 306 305 302 305 302 301 307 312 310 305 301 303 303 298 299 302 300 302 300 297 301 301 303 303 303 305 305 305 305 305 306 306 305 303 305 306 308 305 307 308 310 318 319 321 323 332 334 336 338 338 337
310 310 310 310 310 310 310 310 310 310 310 309 309 309 309 309 309 309 309 307 307 307 306 307 309 309 306 300 298 291 299 303 305 307 306 305 305 304 303 303 304 303 300 302 308 307 304 302 303 305 304 302 303 300 302 301 299 303 302 302 303 303 304 305 304 305 305 305 306 303 303 304 307 305 301 307 309 312 314 316 322 326 330 334 336 338 338 336
309 310 309 310 310 310 309 309 310 310 309 309 309 309 309 309 308 308 308 307 307 307 306 307 308 308 302 301 294 291 305 303 307 307 306 305 303 301 301 303 304 302 301 302 304 307 306 306 306 306 303 300 302 300 301 301 303 302 302 302 302 303 304 304 304 304 305 304 306 305 303 305 306 305 302 306 310 312 311 314 321 324 327 334 336 337 337 337
309 310 309 309 310 309 309 309 309 309 309 309 309 308 309 308 308 308 308 308 307 307 307 307 308 307 303 299 294 295 305 306 307 306 305 304 302 302 303 304 304 303 302 301 304 307 307 307 307 304 297 304 298 301 300 304 302 302 302 298 300 301 301 304 302 303 304 303 306 306 303 302 303 302 306 308 316 316 313 315 321 323 328 335 337 337 336 336
309 309 309 309 309 309 309 309 309 309 309 309 309 308 308 308 308 308 309 307 307 307 306 307 307 306 301 293 297 305 307 308 306 305 304 305 304 305 306 306 305 305 304 302 303 307 308 307 306 302 304 301 300 296 302 304 302 302 301 299 298 298 297 302 304 304 303 303 305 304 293 297 302 305 307 308 314 316 316 318 321 324 329 334 336 336 337 338
309 309 309 309 309 309 309 309 309 309 309 309 308 308 308 308 309 309 309 306 307 307 307 307 307 304 299 293 300 304 306 307 305 303 302 305 303 303 304 305 305 305 305 304 305 308 307 308 306 305 306 301 299 304 301 301 301 296 299 300 296 294 294 301 302 303 301 305 305 304 294 298 302 305 308 312 314 314 313 316 320 323 328 333 336 336 337 339
309 309 309 309 309 309 309 309 309 309 309 308 308 308 308 308 309 309 309 308 307 307 305 305 305 300 294 295 303 305 307 304 301 302 305 303 302 300 301 304 303 304 304 304 305 307 308 307 305 302 300 304 304 299 297 298 298 298 294 292 296 295 296 300 303 303 299 303 306 303 296 298 303 305 307 311 314 317 314 314 317 320 324 332 336 337 337 338
309 309 309 309 308 309 309 309 308 308 308 308 308 308 308 308 308 308 307 307 308 305 306 301 300 299 293 290 297 305 302 297 299 303 304 303 301 298 301 302 304 304 303 303 306 308 308 307 301 301 301 301 298 296 296 295 295 297 294 293 292 295 296 297 301 303 303 303 304 302 297 300 301 306 309 313 314 315 314 314 316 319 322 333 336 337 338 338
307 308 308 308 308 308 309 308 308 308 308 308 308 308 308 308 307 306 306 306 307 306 304 298 300 300 288 299 302 295 295 299 302 300 301 303 301 300 301 301 300 300 302 304 305 306 305 302 303 302 302 298 298 297 292 291 291 293 295 294 295 293 296 294 300 302 302 302 299 302 299 301 304 307 307 315 320 319 314 313 317 320 321 332 337 337 337 338
307 307 307 307 308 308 308 308 308 308 308 307 307 307 306 306 305 304 306 306 306 304 302 303 300 295 291 299 292 294 298 297 297 298 299 302 301 301 301 299 300 300 300 300 303 300 303 299 301 295 298 297 296 294 290 287 291 291 292 293 294 295 297 296 295 299 301 300 299 300 299 300 303 305 307 314 321 319 314 313 317 321 322 329 336 336 336 337
306 306 306 306 306 307 308 308 308 308 307 307 307 308 307 304 305 305 301 302 298 295 290 293 292 285 283 290 295 295 296 298 300 299 298 300 303 303 302 301 301 299 295 296 298 299 301 298 299 295 291 293 293 294 293 295 296 295 295 294 295 293 294 295 299 302 301 298 297 299 297 299 301 304 306 311 316 315 314 316 317 322 324 329 334 336 336 337
306 306 306 307 307 306 307 307 308 308 307 305 304 304 304 299 298 296 300 299 294 294 293 294 296 295 295 295 294 299 302 301 296 299 300 301 299 298 297 298 297 298 295 292 296 297 301 292 291 290 292 294 296 296 297 298 298 298 296 296 295 295 296 298 299 301 302 299 298 299 299 299 301 302 305 309 316 317 316 316 317 320 322 327 332 334 336 338
306 306 306 306 306 306 306 307 307 306 306 306 303 300 292 292 288 288 294 295 297 297 296 296 296 295 294 297 298 297 294 296 298 297 299 303 299 296 293 295 293 290 293 296 296 300 299 292 292 294 296 297 297 298 298 297 297 297 296 295 294 295 294 298 298 301 302 299 298 300 299 300 301 303 304 309 313 314 317 320 322 324 326 328 329 331 335 339
306 306 305 306 306 306 307 307 307 306 306 306 303 297 296 296 299 301 297 288 295 297 297 297 298 295 299 299 300 300 298 292 294 297 301 300 296 291 292 293 291 288 293 295 296 294 292 290 294 297 298 299 298 297 297 296 296 296 295 294 294 295 297 299 299 301 301 299 298 300 298 299 301 303 305 307 311 313 316 318 321 324 326 327 327 329 334 337
306 306 306 306 307 307 306 307 306 305 305 302 299 298 297 302 304 304 301 294 290 297 296 296 294 295 296 299 300 301 293 291 290 295 297 299 294 292 293 291 290 290 292 293 290 290 288 292 296 299 298 297 297 296 296 296 296 295 295 294 292 296 294 292 297 299 300 299 298 300 298 299 302 304 305 307 311 314 315 316 319 321 323 325 328 331 334 336
306 307 306 306 307 306 306 306 305 305 304 302 300 299 303 305 305 302 297 287 287 293 295 297 297 296 295 294 300 297 293 293 293 292 300 297 291 294 291 292 290 290 289 292 293 292 291 296 299 298 297 296 295 295 294 294 292 296 295 295 294 295 295 296 295 298 299 299 300 300 298 298 300 302 303 308 311 311 313 317 320 325 329 329 333 335 336 336
306 306 306 307 307 307 306 305 301 302 303 302 300 303 305 306 306 303 294 289 290 290 298 296 297 296 298 303 300 294 295 295 295 297 298 297 293 292 290 294 292 288 290 292 293 292 293 298 299 297 295 295 294 292 293 293 292 293 296 296 296 297 296 296 298 296 294 294 297 298 291 292 299 302 301 305 307 311 318 319 320 322 326 329 330 332 335 337
306 306 306 306 307 305 305 299 301 302 300 297 300 303 306 306 307 304 294 284 280 290 293 288 299 292 303 294 297 295 295 289 297 298 299 298 300 295 293 290 293 288 290 292 292 293 294 297 297 295 294 293 293 293 294 295 293 292 293 298 298 297 297 297 296 295 291 289 295 299 291 289 298 298 301 303 305 307 315 318 319 320 322 324 327 328 331 333
306 306 306 306 305 305 298 294 302 301 295 298 304 305 305 307 307 302 288 282 279 290 287 293 293 293 297 296 295 296 282 285 296 298 296 300 294 299 292 290 292 293 294 294 292 288 295 294 295 295 294 292 292 291 294 295 293 291 298 298 298 297 296 296 296 295 294 298 299 298 296 292 293 297 302 303 305 305 308 315 317 318 321 323 326 328 330 331
306 306 306 305 305 303 299 301 299 297 298 303 305 305 306 306 305 301 287 273 274 293 288 292 294 299 295 295 297 291 291 295 288 293 297 299 298 295 293 290 290 290 293 292 283 292 294 292 293 293 293 292 291 293 295 296 294 295 298 298 296 297 296 297 296 295 297 296 292 295 297 292 293 300 303 306 303 302 305 311 313 316 319 323 325 328 330 333
306 305 305 304 304 304 304 301 300 297 303 306 306 305 305 306 301 290 282 272 290 288 301 290 302 295 294 295 292 293 293 295 287 293 297 298 298 296 288 292 293 292 294 293 289 292 294 295 295 296 293 291 294 296 296 296 294 298 299 299 298 298 298 297 295 295 295 293 289 293 295 290 292 302 301 305 302 301 303 307 309 312 316 320 325 329 331 333
305 304 305 304 303 303 304 305 300 304 306 306 305 305 305 300 292 280 274 269 291 280 292 294 291 290 293 288 290 293 291 292 293 294 295 292 294 296 296 298 294 292 290 293 292 293 295 299 300 297 294 296 296 297 297 296 298 300 299 297 296 296 296 297 297 296 294 287 291 295 295 293 288 296 300 300 299 302 304 306 309 311 316 321 326 328 330 332
304 304 304 304 300 302 302 298 303 306 307 307 305 303 300 292 282 277 271 280 289 287 293 291 289 294 288 287 284 290 289 291 291 291 289 292 290 293 293 291 295 291 291 290 290 292 294 296 295 297 300 299 298 295 298 298 299 298 296 294 294 293 296 294 294 296 287 285 292 296 296 295 287 294 299 305 305 305 306 305 307 310 313 314 320 325 328 331
304 304 304 304 305 306 298 298 305 307 306 306 303 297 290 278 283 274 275 292 278 284 284 287 290 290 289 290 287 288 286 288 291 290 287 287 287 287 288 285 288 283 283 285 285 291 289 292 296 298 301 299 296 293 294 296 297 296 295 294 289 286 287 284 289 284 285 286 293 296 297 292 291 298 303 305 305 305 307 308 310 311 310 313 317 323 327 330
304 304 304 306 305 304 304 306 308 306 307 304 298 293 283 277 271 281 282 284 278 286 285 291 289 289 288 287 285 288 291 285 289 289 290 289 288 287 290 290 291 289 281 286 286 285 287 294 295 295 297 299 297 290 289 290 293 294 293 292 288 284 282 280 285 287 288 292 295 295 297 291 297 298 302 304 307 307 308 310 309 309 311 313 315 323 327 330
303 304 306 307 306 306 307 308 307 305 302 300 293 285 281 275 276 287 283 284 282 291 291 288 289 289 289 285 285 288 284 290 289 288 288 286 287 285 287 290 291 290 290 287 284 284 280 282 289 293 290 298 296 295 294 292 293 293 297 294 292 291 285 280 285 281 284 288 291 296 291 289 291 295 304 305 307 309 310 311 311 312 316 321 322 326 328 330
303 306 308 308 308 307 308 307 306 305 301 296 288 282 275 276 282 280 282 284 286 288 286 292 285 285 286 287 289 289 288 284 290 288 286 285 284 286 285 287 291 292 291 284 288 287 285 286 292 297 297 298 295 298 298 295 293 295 296 297 293 292 296 287 289 290 289 289 288 290 289 295 295 304 306 308 307 307 308 309 311 313 317 322 323 324 327 329
304 307 308 306 306 307 307 306 306 304 299 291 284 278 276 279 278 284 282 289 288 283 285 287 286 284 284 284 288 287 290 287 288 288 285 286 287 286 289 290 290 292 289 285 289 284 287 285 294 295 299 296 297 298 297 299 286 293 294 289 293 300 296 290 289 294 292 290 286 292 293 297 302 302 304 304 304 305 308 309 311 313 316 320 321 323 326 328
302 305 304 305 306 308 307 306 305 302 297 289 282 277 283 284 287 285 288 285 286 287 285 279 281 280 281 281 284 285 287 290 287 286 282 287 285 288 288 290 293 292 294 293 288 293 285 286 293 293 293 298 300 300 299 299 299 295 289 293 299 301 299 293 285 286 287 284 286 293 289 292 292 290 302 302 303 304 307 309 311 316 320 320 321 324 327 328
300 300 300 303 306 310 308 307 304 300 293 286 280 283 288 283 290 287 290 288 288 288 283 281 283 284 281 281 282 285 287 284 283 285 283 286 282 291 289 289 293 293 294 296 290 291 293 284 290 294 294 297 300 299 296 298 300 296 294 301 293 286 287 293 289 281 282 282 285 290 292 292 293 296 301 301 302 303 306 310 313 317 319 320 322 325 328 330
301 299 297 303 308 309 307 307 302 295 287 283 282 281 286 287 291 289 291 290 290 287 282 284 282 284 283 282 283 286 287 281 284 285 282 284 282 289 289 292 290 294 295 296 292 294 295 285 287 295 295 297 298 296 288 292 297 299 300 296 299 296 292 289 290 292 290 283 284 287 291 288 296 298 302 302 304 305 306 313 314 316 320 322 324 327 328 329
298 296 295 306 309 308 307 304 296 291 286 281 284 284 290 286 289 292 292 291 286 286 284 284 285 283 284 283 285 283 286 287 286 286 285 286 285 291 289 294 291 293 295 296 294 296 290 295 283 291 297 296 290 294 291 292 290 292 293 292 294 295 298 296 296 292 289 286 285 286 285 291 298 302 302 303 306 307 308 313 315 317 322 324 327 328 328 329
299 294 297 307 308 308 305 299 290 286 284 287 288 286 288 286 290 291 293 294 290 294 289 286 285 283 285 284 283 284 286 287 287 285 287 286 288 282 291 292 294 292 295 294 293 294 290 291 285 290 290 290 292 297 297 296 295 293 293 292 293 292 290 287 286 295 294 290 286 285 285 295 300 303 304 304 307 311 313 312 316 321 324 326 329 329 330 329
295 291 295 307 308 306 299 288 288 290 286 284 284 288 286 293 289 291 292 294 292 290 294 289 289 286 288 287 287 285 287 286 287 286 288 285 289 289 291 295 295 296 293 290 292 296 296 294 291 286 290 291 295 297 300 300 298 296 296 294 296 295 295 291 285 288 293 294 295 294 288 291 309 307 306 309 312 311 313 313 317 322 326 328 329 329 330 330
295 294 304 307 308 303 295 288 290 286 285 288 293 292 294 291 289 291 290 292 289 293 290 287 288 287 288 286 287 288 290 285 287 285 288 288 289 292 293 295 296 295 296 293 295 296 295 290 287 289 293 295 298 299 299 300 298 295 296 297 295 293 294 294 294 295 291 292 291 291 287 293 308 314 315 316 316 314 318 318 319 323 326 327 328 328 328 328
295 295 298 306 307 304 292 284 283 285 288 291 292 291 295 291 290 289 290 291 290 290 288 288 289 292 287 289 289 288 290 284 288 287 286 290 289 295 294 295 297 294 294 293 291 297 288 291 289 285 286 288 290 294 294 297 297 294 294 296 296 296 296 297 297 299 290 293 293 291 284 291 306 315 314 313 313 312 317 322 323 323 326 327 327 327 328 328
296 299 297 299 305 300 288 289 286 285 286 287 288 288 290 292 294 292 291 291 294 292 291 290 291 292 290 292 290 292 292 290 286 290 291 291 291 295 294 295 297 295 296 298 297 299 292 291 289 283 280 278 278 280 283 287 291 295 296 295 296 295 295 294 289 292 288 293 294 291 291 298 303 311 312 315 315 319 322 323 325 326 326 325 326 327 327 327
294 287 295 297 299 298 295 294 289 286 284 285 284 290 291 287 292 295 294 293 295 294 293 293 294 293 291 291 288 288 290 293 290 287 290 289 291 293 295 296 296 297 298 298 298 298 292 295 293 291 288 286 289 291 295 295 294 291 293 294 294 296 297 297 296 291 288 293 292 295 297 299 301 304 306 312 316 318 320 321 322 324 324 326 327 326 327 326
297 290 288 286 294 296 292 292 286 286 284 287 282 288 285 287 290 292 296 290 294 293 293 293 293 290 290 291 288 288 290 291 294 292 290 291 292 293 295 296 296 297 298 296 299 298 294 291 293 294 293 293 294 293 295 295 292 293 293 293 295 294 296 296 291 290 296 293 288 296 299 297 299 302 305 310 314 318 321 321 322 323 324 324 325 325 320 326
290 292 293 292 286 286 288 287 288 286 287 287 285 289 286 287 288 286 293 295 296 296 288 291 291 292 292 290 292 286 288 290 292 289 292 294 292 294 292 295 295 298 297 297 300 297 294 288 294 294 293 295 295 294 295 295 294 294 294 294 294 294 295 294 294 296 297 291 290 297 300 299 300 303 306 310 314 318 319 322 323 324 324 324 324 323 323 324
294 292 292 295 286 290 289 290 289 286 285 287 288 288 286 287 286 290 288 289 290 293 293 285 286 290 292 293 290 287 289 286 285 294 294 293 293 292 290 292 295 297 296 296 297 299 295 291 294 294 294 295 294 294 295 294 294 294 294 294 295 295 295 296 296 298 299 297 299 299 302 301 303 304 308 314 315 320 323 324 323 322 322 323 323 322 323 324
287 286 287 291 290 289 292 294 288 287 286 290 285 287 287 287 287 289 292 290 287 293 295 286 288 287 289 292 293 289 292 294 293 288 293 296 296 294 292 293 292 296 297 295 297 299 295 290 294 295 292 293 295 295 295 295 294 293 294 295 295 295 295 296 297 298 299 299 300 300 300 299 305 312 311 318 318 322 322 321 321 323 323 322 322 322 323 324
293 294 292 285 285 292 294 294 292 288 287 287 285 288 287 289 288 291 291 295 290 288 291 289 292 293 293 292 293 293 296 297 296 296 298 298 292 298 293 294 298 293 294 295 296 298 296 292 296 295 289 291 294 294 294 295 295 294 293 294 294 294 293 295 293 298 297 296 298 299 298 298 306 313 318 318 317 319 320 320 322 323 323 323 323 323 324 325
295 297 295 290 284 290 291 294 294 292 286 287 286 287 286 288 291 292 288 295 292 294 294 294 294 292 292 290 290 296 299 300 300 301 301 301 302 302 302 302 300 297 294 295 297 295 295 294 291 291 289 289 294 294 294 294 294 290 290 294 296 296 297 298 298 299 300 301 296 292 296 306 310 311 310 318 317 320 320 321 322 323 324 324 323 324 324 325
Wind_Speed
13 13 12 13 13 13 13 13 13 13 13 12 13 12 12 12 13 13 14 15 15 14 14 14 13 14 15 15 16 16 18 15 15 13 11 8 5 8 11 11 12 14 13 11 10 8 9 9 10 8 8 9 10 12 10 13 8 9 12 14 18 16 20 16 17 14 13 12 16 13 9 10 10 7 7 6 9 10 5 7 5 3 1 2 5 6 11 13
13 13 13 13 13 13 13 13 13 13 13 12 12 13 12 12 13 13 13 14 14 15 15 14 13 14 15 15 16 16 16 14 16 15 14 9 4 3 7 9 12 13 12 10 11 9 10 10 11 10 10 10 8 11 13 10 12 13 12 14 19 16 15 17 15 16 14 15 17 11 3 7 8 8 7 9 10 10 9 9 7 7 3 3 3 8 10 12
14 14 13 14 14 13 13 13 13 13 12 12 12 12 13 13 13 14 14 14 14 14 15 14 13 13 14 14 14 17 15 16 13 14 7 10 6 1 5 10 11 14 11 11 10 11 11 8 9 11 11 11 10 12 14 11 13 16 13 16 18 16 16 16 17 16 16 16 16 18 4 7 9 10 7 10 13 11 13 9 9 9 8 8 9 9 11 12
14 14 14 14 14 14 14 14 13 14 13 13 13 13 13 13 13 14 14 15 16 15 14 15 13 13 13 11 12 14 13 14 12 6 9 9 8 9 11 14 12 15 10 11 11 10 10 9 8 13 11 13 10 14 14 12 12 12 15 16 14 14 17 14 15 15 14 10 15 16 4 6 8 10 8 10 12 13 11 12 8 7 8 9 10 11 10 13
14 14 14 14 14 13 13 13 13 13 14 13 14 14 13 13 13 13 13 14 14 16 15 14 14 12 13 9 14 10 12 11 4 6 9 8 8 10 12 15 14 13 10 9 10 11 11 11 11 12 12 12 12 13 14 15 13 10 18 16 13 12 16 12 12 9 10 8 13 11 10 9 6 8 10 11 12 10 11 7 4 3 5 10 13 13 12 13
14 15 14 15 15 14 14 13 13 13 13 13 13 14 14 14 13 13 14 13 14 15 14 14 14 13 9 6 11 7 6 7 4 4 6 8 6 9 13 16 12 12 8 8 10 11 12 13 13 13 12 13 16 15 14 15 15 14 13 16 16 10 11 10 9 12 11 10 15 14 11 7 8 9 10 11 13 9 9 4 2 3 4 8 10 13 13 13
15 15 15 15 15 15 15 14 14 14 13 13 13 13 13 14 14 15 14 14 13 14 14 13 13 14 7 10 9 8 7 11 6 5 4 6 6 8 14 15 9 8 8 7 11 12 15 15 16 15 13 14 16 16 15 16 16 16 12 14 17 11 13 10 10 10 12 14 15 13 8 11 11 13 9 12 11 12 3 1 5 6 4 8 12 13 13 14
14 15 15 15 15 15 15 15 15 15 14 15 14 14 14 14 15 16 16 15 13 13 14 13 12 12 7 10 8 5 8 10 2 6 6 4 5 9 13 13 5 8 8 8 10 14 14 18 18 15 14 15 12 16 14 15 16 16 16 12 14 13 13 11 9 11 12 14 12 11 11 12 13 11 10 12 13 12 4 3 6 7 6 10 12 13 13 13
14 15 15 15 15 15 16 15 15 15 15 15 15 16 16 15 15 16 16 16 15 14 13 12 12 9 3 8 7 9 10 6 4 4 1 4 7 12 14 10 6 8 7 6 9 11 14 16 17 16 13 16 13 16 16 14 14 16 16 9 10 13 15 14 9 10 12 9 12 12 15 14 14 11 15 13 13 11 3 7 7 6 9 11 12 13 13 13
15 15 15 15 15 15 15 16 15 15 15 15 15 16 16 16 16 16 16 16 16 13 12 13 10 9 8 8 8 9 1 6 2 2 1 6 11 15 13 9 7 8 8 9 9 12 15 12 17 16 12 12 12 14 15 18 8 14 17 14 11 11 14 15 14 12 11 11 11 15 15 15 15 11 11 16 17 9 9 10 8 8 10 11 10 11 11 12
16 16 16 16 16 15 15 15 16 15 15 15 15 15 16 15 16 16 16 16 15 13 11 12 9 8 9 6 9 10 7 3 1 1 5 10 14 14 12 9 8 9 10 10 10 12 12 13 13 9 8 9 12 14 16 14 10 2 15 15 13 11 12 12 15 15 11 12 12 12 14 12 13 12 13 10 12 11 14 13 11 9 9 10 10 11 11 11
16 16 16 16 16 15 15 16 16 16 15 15 15 15 15 17 17 17 17 17 15 11 10 10 10 7 9 11 13 11 6 2 4 9 12 12 12 12 11 10 9 10 9 11 11 10 12 10 9 13 9 9 10 10 14 11 14 8 13 15 16 14 13 14 15 16 16 13 14 11 11 15 15 16 14 12 7 9 13 14 12 11 9 9 10 10 10 11
16 16 16 16 16 16 16 16 16 16 16 15 15 15 16 17 17 17 18 17 13 11 8 9 7 7 8 13 14 15 15 12 13 13 13 11 10 9 9 9 10 10 11 11 9 8 8 8 9 13 10 6 10 9 4 15 11 10 10 11 13 15 16 17 13 14 14 12 12 12 12 15 19 17 14 15 10 10 11 12 11 9 8 8 10 10 10 10
17 17 17 17 16 16 16 17 17 16 16 16 16 16 16 17 18 18 18 16 14 13 10 9 8 7 9 16 7 3 8 11 14 14 12 7 7 6 7 5 5 8 9 12 10 4 7 7 8 12 7 10 9 8 6 11 12 14 13 11 12 13 15 19 17 17 15 12 13 17 14 12 15 18 17 12 12 13 13 13 12 10 9 9 10 10 10 11
18 18 17 17 17 17 17 17 17 17 16 17 17 17 17 19 19 18 17 15 11 10 6 5 7 7 10 12 10 8 4 5 8 7 4 5 5 6 4 4 7 7 9 10 8 7 6 7 9 12 9 10 4 11 10 11 11 12 12 15 13 14 11 18 20 20 18 14 16 14 13 13 8 10 18 15 13 12 13 14 13 12 10 10 9 10 10 9
17 17 18 18 18 18 17 17 17 17 17 17 18 18 18 19 19 17 13 10 10 1 6 7 7 9 10 13 3 4 6 5 2 1 2 3 5 8 8 8 7 7 9 8 6 4 7 10 13 12 12 12 10 11 11 10 11 14 16 13 16 14 10 11 20 20 21 14 17 19 9 9 12 7 12 14 15 14 13 14 14 13 12 10 9 9 8 9
20 20 17 17 18 18 18 17 17 17 17 17 18 18 18 18 15 10 6 5 4 5 5 5 3 5 8 2 3 8 3 4 2 5 3 5 7 9 9 7 7 9 9 8 8 7 10 12 10 11 13 11 13 13 13 14 13 14 15 13 15 18 14 10 15 17 21 19 15 19 15 10 4 10 12 13 13 14 14 15 13 12 11 11 9 9 9 9
19 19 21 19 16 18 18 19 18 18 18 18 16 17 17 17 8 5 7 4 1 3 4 3 5 6 14 13 10 4 4 4 3 5 10 10 8 8 6 6 4 7 10 10 10 12 12 12 13 12 11 14 16 16 18 20 18 16 15 14 14 17 18 11 12 16 20 23 18 17 19 19 11 8 10 13 13 14 15 14 13 13 12 11 9 9 11 10
19 20 19 21 20 17 18 19 18 18 18 17 18 16 17 7 5 2 2 3 5 5 5 7 8 8 6 2 4 5 8 2 6 8 10 9 5 6 7 7 7 8 12 13 11 15 12 11 12 13 17 18 20 21 18 12 16 16 18 15 11 12 16 15 11 15 20 20 20 19 17 20 20 14 10 12 14 14 14 14 12 12 11 11 10 9 10 9
18 19 18 20 20 21 19 19 18 18 18 15 13 11 6 4 3 5 6 5 10 12 13 13 11 14 18 16 13 8 3 7 10 7 8 8 6 7 10 8 8 10 13 14 14 17 13 16 17 20 19 20 20 20 17 10 8 16 17 16 13 13 13 15 13 14 19 16 19 18 18 20 20 19 14 11 12 14 14 14 12 12 12 11 10 10 9 8
19 19 19 18 19 20 19 19 18 18 14 12 12 9 6 5 8 6 10 13 16 16 17 17 16 15 16 12 10 11 11 7 6 6 6 1 7 7 9 11 11 12 14 17 15 13 15 16 18 19 18 18 19 17 18 9 12 14 16 16 13 15 12 15 15 13 15 14 14 17 18 20 19 18 16 14 13 14 14 14 13 12 12 10 11 11 10 7
18 19 18 19 20 20 20 19 19 19 13 8 7 6 5 6 5 7 7 10 7 10 13 19 16 17 13 13 12 9 8 10 10 11 10 8 8 9 9 12 13 13 14 15 14 14 17 20 17 18 16 14 18 18 17 12 14 15 13 14 13 13 11 11 14 13 13 13 10 16 17 16 18 17 15 16 15 12 13 14 13 14 13 11 11 11 10 8
18 20 19 20 20 21 20 19 18 18 10 6 6 6 6 5 4 5 6 11 16 12 14 15 14 14 13 9 8 5 9 10 7 3 5 11 10 14 9 12 13 14 15 18 17 17 17 18 17 15 16 16 17 20 18 14 12 13 13 13 14 13 14 10 14 15 13 11 10 13 15 12 15 16 15 14 14 13 14 14 13 12 13 12 12 10 9 10
20 19 21 21 20 21 20 19 19 15 5 5 8 8 8 5 4 4 7 7 11 10 10 8 8 8 9 6 2 8 8 4 5 4 7 10 12 12 13 12 13 14 15 21 23 18 16 11 15 16 14 16 19 20 19 13 12 13 15 13 13 15 15 9 12 13 12 13 10 8 10 11 13 11 11 12 13 13 13 12 12 10 9 9 9 8 8 10
21 19 20 21 20 20 20 21 12 3 3 9 9 5 3 4 4 2 7 9 8 7 5 6 5 6 3 3 5 7 5 7 12 6 5 10 12 10 13 9 10 14 16 21 21 18 18 13 15 18 16 17 18 17 20 16 12 13 15 14 13 13 14 11 12 16 11 11 13 13 10 13 14 17 16 13 12 13 11 12 13 13 13 12 11 11 10 9
21 22 21 21 20 19 20 13 3 2 10 10 7 2 2 1 3 2 5 5 9 3 5 6 6 3 3 6 6 5 2 7 4 7 9 9 9 10 7 10 9 12 17 18 18 12 12 11 14 19 19 19 19 16 20 18 13 12 13 13 13 12 14 10 15 14 12 12 15 16 14 8 12 16 16 15 16 16 13 13 14 13 13 13 12 12 11 11
22 22 22 22 20 19 11 6 7 11 11 6 3 3 2 2 0 3 4 5 8 4 3 7 6 3 4 3 6 3 8 3 2 4 9 10 12 8 11 11 10 9 10 10 11 14 14 16 15 18 19 18 16 16 19 21 13 11 14 14 8 13 16 14 13 13 8 7 9 19 14 10 11 14 15 16 16 18 16 14 15 14 14 14 14 13 11 10
24 23 22 23 22 18 10 10 10 11 10 4 3 3 3 2 2 3 4 5 3 4 3 4 2 4 2 2 6 9 10 9 8 6 6 10 10 11 11 12 11 12 12 13 16 12 17 16 17 19 19 16 16 15 18 22 13 8 16 17 12 12 13 14 12 11 10 9 9 13 17 12 10 7 14 17 16 18 18 17 18 18 17 15 15 12 11 10
23 24 25 25 24 22 14 10 10 13 6 2 4 4 2 1 5 4 5 7 3 2 3 3 4 4 5 6 9 12 11 6 8 7 4 8 12 5 11 12 11 11 13 16 12 12 12 14 16 17 15 14 13 15 18 22 15 10 14 14 11 10 11 12 10 11 8 5 11 15 18 13 12 9 10 13 15 17 19 21 20 18 16 15 13 14 13 11
24 26 26 25 21 12 6 6 11 9 4 5 4 3 2 2 4 4 4 6 2 2 3 4 5 1 6 6 8 8 11 7 8 2 7 8 12 5 7 7 10 11 13 15 14 8 10 13 13 13 14 11 14 14 18 22 12 14 14 14 11 9 9 8 8 10 9 11 13 14 19 15 11 13 12 13 15 18 16 15 16 16 16 16 15 14 13 11
26 26 26 23 11 6 4 6 6 7 6 6 6 3 1 3 4 4 7 3 3 2 2 5 2 5 5 6 8 3 7 7 9 9 8 9 13 10 8 6 8 9 10 12 14 9 11 16 14 12 12 11 13 13 16 20 12 15 12 13 12 9 8 8 7 5 8 10 13 15 16 19 13 10 12 13 16 16 14 16 17 17 18 16 14 13 13 13
27 27 27 16 7 4 6 1 5 3 7 6 6 4 3 3 4 5 6 5 9 2 2 3 4 5 9 8 9 8 4 5 9 11 10 11 12 12 13 10 10 11 12 14 14 10 11 16 14 16 13 17 15 14 15 18 14 14 13 14 14 11 8 10 10 12 12 8 11 14 13 13 17 7 5 13 16 15 15 13 13 16 17 17 16 15 13 13
25 25 23 8 3 4 7 6 1 3 7 8 6 4 3 4 6 6 7 2 2 2 1 2 8 11 12 12 9 9 10 9 9 10 12 13 12 13 15 13 14 10 11 15 15 11 10 15 18 15 14 14 17 15 16 17 17 17 17 16 15 13 12 12 13 7 7 10 3 10 14 12 6 14 10 6 11 15 14 14 12 12 15 17 16 14 12 13
25 22 7 4 4 3 3 5 2 6 10 8 6 3 4 5 7 5 8 5 6 3 10 8 11 13 12 7 5 4 7 9 8 8 13 12 13 12 14 13 16 14 8 15 14 13 13 15 17 19 14 17 17 15 17 14 19 17 15 14 12 10 10 10 11 13 13 11 10 9 9 8 13 4 11 15 7 8 9 11 11 8 2 4 8 11 12 12
26 15 4 3 3 3 5 5 5 11 9 8 5 4 4 8 6 6 6 5 3 6 8 11 11 11 9 8 5 9 6 5 9 9 12 13 12 12 14 12 14 11 10 13 13 10 15 9 15 18 12 18 17 15 16 15 13 13 14 11 12 11 5 8 3 8 11 10 9 12 8 5 8 3 4 3 9 9 8 8 7 8 7 8 9 11 13 13
14 3 4 2 1 4 6 6 8 7 7 7 4 5 7 4 5 1 3 2 4 5 12 16 11 6 7 1 4 6 6 4 10 8 9 13 13 12 14 12 14 13 10 11 12 11 13 10 18 17 15 19 17 15 15 15 14 15 14 16 14 7 4 3 4 9 3 4 7 5 9 3 3 6 8 10 9 9 11 12 11 9 10 11 11 12 13 13
7 6 1 4 5 3 8 8 7 6 5 5 4 6 5 6 8 1 2 2 5 5 8 8 3 1 4 2 3 7 8 7 10 8 8 11 11 13 15 12 14 12 13 9 13 9 12 11 18 17 16 18 17 14 15 17 7 11 14 13 10 2 4 6 7 5 6 7 4 11 13 10 8 5 12 14 13 11 11 11 11 10 11 12 11 12 13 14
8 5 5 5 7 1 8 8 6 4 4 3 8 11 8 10 4 7 2 5 6 8 6 5 1 2 2 3 2 7 9 8 9 7 7 12 7 13 13 11 15 11 12 4 7 12 12 10 14 17 14 16 17 12 12 16 11 11 11 10 11 10 7 8 4 10 10 9 6 7 11 11 11 7 6 13 14 14 13 11 11 11 12 13 12 13 13 13
5 4 1 5 6 4 6 9 6 6 3 5 7 8 3 6 10 6 7 7 8 10 7 6 5 2 3 3 1 4 9 5 9 6 8 10 8 14 13 10 13 14 13 8 7 10 9 9 12 17 15 17 15 13 13 14 11 9 11 9 11 6 9 9 5 5 8 7 6 6 12 7 11 10 7 8 13 13 14 12 12 13 14 12 11 12 13 13
4 3 2 5 4 2 7 8 6 4 3 6 6 8 8 13 12 12 10 8 5 4 5 7 3 5 4 5 4 4 8 6 8 6 6 9 6 14 13 13 12 15 13 10 8 14 6 5 12 15 18 17 15 13 13 15 14 12 13 11 12 6 7 7 7 6 7 6 7 4 5 8 8 9 10 6 8 12 12 11 10 10 10 11 11 12 12 12
3 2 3 4 4 6 7 6 4 5 5 7 10 10 15 7 9 14 13 9 9 7 8 6 4 3 2 3 5 5 6 7 7 7 5 10 7 10 12 13 13 15 13 10 8 11 6 8 12 16 16 16 13 13 12 15 14 12 11 12 12 12 11 12 10 7 6 7 5 6 5 2 8 8 9 12 6 5 8 7 7 8 11 11 10 11 11 10
5 2 4 4 4 8 6 3 4 3 3 7 8 7 9 9 8 11 10 5 9 7 7 5 6 8 6 5 2 5 5 6 7 6 6 9 10 7 13 16 15 14 11 10 8 12 3 6 12 14 15 14 14 15 12 12 15 13 11 10 12 11 7 8 7 9 8 2 2 4 3 3 7 4 8 5 3 4 3 4 5 7 10 11 11 11 10 11
5 3 4 3 6 8 5 5 3 3 5 8 11 14 11 8 6 6 8 5 5 4 2 2 4 4 1 2 1 5 6 4 8 5 4 8 7 8 17 20 14 15 10 9 10 10 0 4 13 12 11 13 15 15 12 12 15 14 13 10 12 13 12 9 4 7 6 7 6 3 3 3 6 4 4 4 2 2 1 2 5 7 9 11 12 13 13 12
5 4 1 4 5 6 4 5 5 7 8 12 13 12 8 4 4 8 6 5 4 2 1 2 2 3 3 3 5 5 6 3 6 6 5 6 6 9 21 18 18 11 11 9 7 11 6 5 12 13 12 12 9 10 12 11 12 12 12 12 13 12 14 12 7 6 5 8 7 4 5 3 6 4 5 5 4 4 4 4 5 8 9 10 12 12 12 12
6 3 3 2 3 5 3 1 4 8 9 12 14 15 13 9 4 9 11 9 5 5 3 2 2 2 4 2 6 5 3 3 3 6 3 7 6 8 17 18 16 13 9 7 4 10 4 8 11 13 15 15 15 16 18 17 17 12 13 15 15 16 16 12 9 8 6 7 4 3 3 8 7 5 7 6 6 6 5 6 5 7 10 11 11 11 11 11
6 4 2 0 1 4 4 3 2 4 9 9 11 9 12 10 9 5 8 8 6 5 6 7 5 2 4 4 5 5 4 5 4 5 6 7 7 8 13 17 17 11 10 4 3 7 3 8 10 12 12 11 10 10 11 13 13 15 18 19 18 17 16 11 8 8 8 6 4 7 4 7 8 7 6 5 4 6 7 7 8 8 9 10 10 10 10 10
5 4 5 7 7 6 4 2 1 2 7 9 6 6 7 9 12 8 4 4 3 2 4 5 3 2 3 5 5 5 5 4 6 2 5 7 9 10 13 15 14 14 6 4 6 5 6 8 8 7 14 9 9 5 9 16 16 15 16 17 17 17 16 15 9 8 9 6 7 8 6 5 3 6 5 4 3 4 5 7 8 8 8 9 9 9 11 11
3 4 3 2 3 6 9 0 4 11 11 7 4 3 7 13 14 9 5 5 8 3 2 1 3 6 5 5 3 4 2 5 3 3 6 5 12 12 11 13 13 13 11 7 5 5 7 6 6 5 11 13 7 7 11 14 15 16 16 16 18 18 16 16 13 9 13 8 6 7 7 8 6 2 5 6 4 2 4 6 7 9 9 9 10 11 12 12
4 3 2 5 5 6 8 13 13 10 13 8 4 3 10 13 14 11 6 5 4 3 5 2 1 5 6 5 2 2 4 3 4 4 4 9 11 13 12 10 11 10 10 8 7 5 4 5 7 5 8 9 7 8 13 16 15 15 15 17 17 17 16 15 14 9 7 12 2 5 4 5 6 5 4 5 3 3 5 6 7 9 10 10 11 11 12 12
5 5 4 7 7 11 10 9 3 4 8 7 7 6 8 11 14 13 10 4 6 5 5 2 3 4 6 5 5 5 5 3 3 3 2 1 7 10 11 9 7 10 10 9 7 8 7 5 0 4 6 11 9 6 8 16 16 15 15 16 18 17 16 16 15 11 9 10 10 5 6 7 1 2 2 4 2 4 6 8 8 9 10 11 11 12 12 12
4 5 6 8 11 6 8 9 9 6 6 4 6 8 10 12 13 15 15 8 6 3 2 4 5 6 7 8 8 8 8 7 5 5 4 3 4 1 5 8 5 11 11 9 7 8 7 4 3 4 5 9 12 10 11 13 16 15 16 18 19 19 18 18 15 14 11 11 10 9 8 6 4 5 5 3 4 5 7 8 8 8 10 11 11 12 12 12
5 5 6 5 6 6 9 10 9 6 4 2 3 10 6 13 16 15 10 0 3 7 8 7 7 7 4 7 10 8 6 5 6 5 5 3 4 6 4 3 5 5 9 8 7 7 5 4 3 3 4 7 14 13 11 11 12 14 15 19 19 17 14 14 15 15 15 13 10 7 9 3 5 3 1 4 3 4 5 7 7 8 9 11 11 10 11 11
Wind_Direction
358 355 356 352 351 350 349 349 348 347 346 346 345 344 345 345 339 341 344 337 335 335 336 331 334 334 332 339 332 334 326 310 310 298 292 285 333 312 302 291 291 300 302 289 277 253 249 225 210 200 212 203 209 220 186 204 185 190 213 228 234 233 236 234 236 231 244 253 252 242 221 220 244 194 213 196 223 236 218 217 157 197 238 2 46 104 118 129
357 354 352 351 350 348 347 347 347 345 344 344 344 341 343 341 341 337 337 338 336 332 335 332 326 332 336 332 334 335 315 308 299 292 280 1 112 282 280 293 310 307 301 271 254 241 244 220 206 185 206 211 189 214 175 198 191 198 216 223 236 229 237 243 233 232 230 236 257 268 142 232 250 214 180 222 224 219 219 204 187 194 196 149 138 129 136 147
356 351 351 351 350 349 348 347 346 345 343 342 341 341 339 337 339 338 336 336 337 334 331 329 327 329 331 339 338 322 305 300 293 281 92 70 68 347 340 348 325 309 285 274 257 245 236 239 206 194 207 216 188 205 189 197 192 213 220 224 232 234 242 234 227 222 227 250 255 261 241 214 252 219 169 233 251 222 232 222 187 215 208 195 166 157 154 165
354 352 351 350 349 348 348 346 344 343 341 339 338 337 335 334 335 339 337 336 334 329 327 323 326 327 323 340 340 307 299 300 280 116 98 72 34 21 2 350 338 312 295 258 248 242 239 244 238 205 204 220 191 217 192 193 195 199 226 231 232 222 233 223 218 216 237 225 249 261 220 228 201 209 205 234 242 232 238 239 241 208 203 187 173 171 167 176
351 349 347 345 345 345 346 341 342 340 339 336 334 331 331 332 334 337 334 331 334 327 320 321 320 320 326 350 309 303 306 283 82 106 89 51 30 2 357 346 336 321 310 283 233 227 229 220 215 211 217 210 212 205 213 203 202 212 222 230 233 229 231 207 211 209 211 219 238 237 222 240 186 205 217 226 232 238 235 180 187 225 196 181 176 179 176 182
345 345 344 342 341 340 340 338 338 337 335 334 329 329 328 332 329 329 329 334 330 325 319 319 315 315 331 324 297 305 296 295 99 141 115 52 26 356 350 336 330 311 310 267 222 208 211 212 205 204 207 216 206 208 199 213 188 227 216 228 230 235 221 199 200 204 203 204 221 229 232 234 190 219 219 224 231 242 55 75 228 255 226 186 177 171 179 184
344 342 341 339 337 337 335 334 333 330 332 329 326 326 327 327 325 326 327 328 331 325 319 317 318 313 337 278 284 270 258 273 253 132 102 30 4 347 342 327 314 315 309 261 218 211 204 205 205 204 205 212 214 213 203 205 203 227 224 206 218 203 214 203 216 193 203 217 223 231 239 228 221 235 216 227 225 248 71 344 268 271 228 168 174 174 179 185
343 341 339 338 336 334 333 331 330 328 329 326 322 321 324 324 325 327 326 324 326 324 324 317 317 319 331 302 304 255 246 252 287 54 42 354 312 332 335 320 315 314 290 253 224 218 203 208 203 202 214 208 199 207 199 205 204 216 231 210 207 207 213 215 217 211 205 216 226 228 228 225 233 238 229 222 231 234 218 247 253 251 188 177 180 175 180 188
340 339 338 337 336 334 332 329 328 327 327 324 320 320 323 324 325 324 321 323 320 323 316 315 310 321 300 281 291 287 270 266 342 60 110 333 322 325 327 315 325 302 286 257 241 238 217 212 211 208 211 213 205 207 198 198 210 218 220 208 210 207 210 207 202 205 205 214 223 226 233 239 237 234 246 239 230 235 248 251 245 219 185 185 184 179 182 188
339 338 338 335 334 333 333 331 328 328 326 324 321 320 321 321 320 319 319 322 319 318 313 305 312 314 284 286 274 265 23 75 145 176 316 322 320 316 310 306 309 294 265 246 229 228 228 218 214 207 243 232 206 209 193 203 224 196 214 214 210 203 209 209 210 200 197 216 209 226 231 233 230 219 236 228 239 226 234 241 226 209 197 188 186 179 184 192
339 338 337 336 333 332 331 330 328 327 326 324 320 319 317 316 314 315 316 319 318 313 314 300 309 294 268 261 256 253 75 259 113 281 296 314 313 307 305 304 297 277 254 250 241 227 232 245 219 212 227 233 198 211 207 207 210 181 203 210 214 212 211 209 212 216 205 214 212 221 232 232 223 209 235 237 206 211 228 229 218 215 208 191 185 181 183 193
338 337 337 335 333 331 330 330 328 327 327 325 321 318 315 314 313 312 312 315 307 302 303 301 299 276 269 260 247 240 56 12 301 301 305 309 296 292 291 284 273 259 254 245 232 224 231 242 269 212 195 196 206 205 217 203 212 195 193 204 207 214 213 198 204 208 210 217 205 212 242 233 216 220 216 227 160 203 215 220 216 212 207 191 183 183 186 192
338 337 337 336 335 334 332 331 330 328 328 324 321 318 315 313 310 306 308 306 300 295 291 290 281 259 264 260 255 261 272 288 292 297 294 285 282 270 268 270 263 252 245 247 243 218 220 236 245 222 225 223 193 196 159 188 189 198 199 213 202 213 222 206 203 199 195 212 193 193 228 226 222 219 212 217 203 204 212 215 211 207 205 192 186 186 187 190
337 337 338 338 335 334 334 331 329 330 327 324 321 318 316 310 307 302 304 302 293 284 278 259 265 259 253 258 276 274 267 277 287 279 272 274 272 277 268 248 249 243 234 245 249 239 214 230 248 241 221 222 199 105 168 171 189 204 196 211 217 203 217 202 200 193 199 185 187 193 230 235 220 209 206 194 205 206 214 215 212 207 203 196 189 186 189 191
336 336 337 337 336 334 334 333 331 329 327 323 320 318 312 307 301 302 304 294 280 272 249 248 243 252 246 267 265 270 331 270 267 262 258 269 285 283 248 209 240 239 231 232 242 221 223 216 222 223 210 218 303 182 191 184 182 193 187 208 213 219 207 197 196 196 198 180 191 194 234 237 228 199 186 185 197 207 217 216 212 208 203 196 189 188 188 186
332 335 335 336 334 334 332 332 331 329 329 325 320 316 308 301 300 304 300 291 293 208 218 237 239 241 284 283 22 73 227 235 225 29 310 270 287 293 304 288 278 251 222 220 229 220 205 204 215 206 205 192 214 195 181 184 190 198 207 200 204 204 200 172 191 197 202 188 194 207 225 213 229 175 176 193 200 203 218 221 214 211 204 194 191 190 189 180
331 328 330 332 333 333 331 328 327 330 329 325 319 308 303 295 306 297 287 286 200 189 204 247 233 233 264 102 345 264 222 170 35 264 271 277 285 288 290 282 246 222 209 211 205 207 190 205 202 216 221 207 204 200 193 199 192 198 200 212 201 198 191 193 168 199 197 204 195 206 231 234 208 181 174 184 200 205 218 223 217 212 209 193 193 188 189 192
327 328 324 325 326 331 330 328 327 326 329 325 315 303 293 300 287 222 191 184 169 196 227 266 255 259 241 240 262 250 65 258 235 300 294 292 280 264 263 276 254 230 193 194 190 201 183 201 196 209 196 207 198 202 203 199 192 186 186 203 197 198 203 189 162 180 194 201 214 201 219 229 211 169 196 185 186 202 213 217 218 211 209 196 195 193 194 193
325 323 326 323 321 323 328 329 325 325 327 323 294 281 271 270 227 242 243 176 187 191 214 185 206 204 320 75 205 265 249 283 292 276 274 270 213 239 248 258 261 223 193 198 178 200 182 205 193 209 203 200 200 202 206 202 194 193 186 193 190 186 194 209 185 168 189 191 207 207 210 220 226 219 188 192 198 204 212 214 214 213 211 204 201 201 200 196
328 326 324 323 321 319 323 326 326 322 330 320 322 321 278 240 213 213 169 216 243 257 279 291 223 255 282 283 276 305 347 250 265 244 253 244 253 249 245 241 222 224 208 202 176 202 179 204 196 204 205 200 202 206 209 217 232 191 187 190 185 195 195 202 204 171 189 193 204 207 212 220 224 221 208 190 192 209 215 214 214 212 209 206 206 211 206 194
329 327 323 321 320 318 318 326 323 319 324 316 310 309 329 339 307 314 323 293 276 264 265 263 261 267 265 283 287 290 300 292 251 268 248 153 229 252 225 207 210 204 211 206 194 185 200 211 212 209 208 201 200 202 210 199 221 178 181 188 191 202 208 194 200 170 189 205 198 209 210 220 225 218 209 197 193 203 210 213 214 214 211 211 213 214 210 181
324 322 322 317 317 314 320 324 321 315 306 291 294 301 316 305 323 321 313 293 269 260 256 258 265 267 269 266 272 289 277 274 265 246 227 206 211 222 191 203 200 210 197 206 199 187 204 213 212 204 204 201 198 198 202 201 186 181 189 188 198 196 210 169 193 169 184 203 209 197 215 218 220 221 203 204 199 204 208 215 214 213 211 214 216 216 205 180
327 320 322 320 317 317 324 318 315 307 300 283 278 286 296 322 312 304 286 283 281 261 244 252 251 249 257 259 261 233 239 243 276 247 178 191 205 224 212 200 205 212 197 202 199 195 205 213 212 196 200 206 191 196 188 194 192 190 190 186 199 186 193 171 199 183 185 200 206 193 213 220 219 221 209 201 200 207 213 217 222 220 216 214 214 210 201 193
325 325 322 322 320 319 320 320 306 282 260 302 297 284 287 285 285 289 283 286 297 292 249 229 246 249 253 271 121 203 229 250 232 255 174 190 212 201 237 219 210 207 207 201 204 203 209 192 197 193 189 192 186 186 188 196 198 199 203 196 196 189 192 202 170 183 184 201 244 203 210 221 212 186 193 196 209 216 212 216 222 223 232 229 221 212 207 203
325 324 321 320 321 321 323 320 295 316 322 298 290 295 279 268 269 268 295 290 247 232 142 210 214 244 194 114 181 230 210 255 240 254 177 209 203 196 219 224 233 207 213 200 206 211 212 199 183 196 186 189 186 185 195 195 199 196 205 204 201 183 185 214 158 173 181 196 206 206 204 219 202 202 205 196 197 208 204 211 214 218 219 219 222 221 212 204
326 326 322 322 321 322 325 302 346 332 305 294 280 270 245 268 263 290 291 282 288 129 170 184 183 125 141 185 176 229 238 260 198 229 218 211 234 234 193 222 216 210 209 204 205 210 209 188 203 189 193 194 198 198 190 195 198 192 188 206 203 178 183 163 163 178 190 204 188 210 223 210 200 206 201 197 193 201 199 208 215 217 222 218 221 222 218 207
327 323 322 320 319 326 313 295 323 299 290 296 155 183 217 250 196 228 281 245 261 105 225 82 220 110 236 120 193 170 247 106 269 201 209 193 213 215 244 201 191 251 206 206 199 205 207 180 193 197 196 191 190 196 187 194 198 199 171 190 190 182 189 183 181 198 206 199 168 194 218 240 199 203 197 190 188 199 199 203 216 218 217 219 219 219 217 207
325 323 321 321 318 314 290 290 283 273 262 287 182 211 263 294 255 266 253 301 290 143 166 149 17 101 253 261 223 241 296 330 273 143 215 171 214 193 232 214 196 198 197 200 206 182 202 183 198 196 192 188 195 192 177 194 207 182 163 182 188 193 191 190 199 199 216 167 188 197 206 232 242 156 181 179 195 201 201 205 212 215 216 217 219 218 214 205
325 324 322 319 315 304 285 266 265 259 270 204 218 232 252 236 255 281 282 278 103 219 13 161 145 170 186 224 242 239 257 250 263 102 153 161 209 248 202 236 206 196 194 208 204 179 194 198 197 194 190 191 186 187 177 190 203 148 151 168 178 186 191 193 201 211 198 201 215 192 193 218 221 167 180 178 203 200 206 208 210 211 211 211 212 211 208 200
324 322 321 320 314 296 276 241 238 255 260 192 192 171 183 232 243 228 218 245 80 256 187 92 219 249 165 247 269 229 233 222 232 170 166 186 183 227 268 261 213 195 190 204 220 155 185 209 203 199 193 187 179 183 178 186 199 136 161 158 156 164 178 190 216 213 197 222 221 195 190 211 220 202 185 182 200 205 202 205 207 206 206 207 208 207 201 194
324 322 320 319 300 294 285 260 251 218 208 188 171 174 230 221 247 269 250 356 232 75 254 196 231 163 242 266 291 147 234 242 209 209 171 181 171 204 201 192 219 204 188 181 208 182 197 188 193 199 199 186 179 162 178 190 185 165 166 170 158 166 176 181 199 224 222 222 213 206 194 201 231 202 191 192 205 209 208 205 201 201 205 208 205 205 200 193
325 322 320 317 297 269 230 242 40 161 185 183 169 168 207 252 196 221 265 114 262 127 247 318 300 261 284 292 275 256 246 229 220 203 198 180 173 188 192 196 182 179 181 179 187 178 194 187 186 185 209 193 169 166 173 187 188 191 177 175 175 162 170 187 190 200 214 216 197 197 188 201 222 231 137 199 205 199 205 210 200 204 208 207 205 199 193 191
324 321 317 296 280 235 235 254 293 229 165 171 178 169 223 248 263 261 270 345 295 356 351 236 300 310 304 301 269 258 222 234 186 208 205 182 192 191 190 209 182 202 172 178 173 177 174 183 183 179 188 190 189 176 166 183 189 195 188 181 182 172 180 191 193 198 198 212 65 185 186 226 213 235 233 213 205 205 200 211 220 213 210 208 207 193 186 187
323 319 314 356 297 247 251 216 204 169 163 164 171 174 228 244 255 307 296 287 302 294 297 306 312 303 287 279 280 229 199 213 193 193 199 180 195 184 188 213 197 198 208 171 182 178 159 177 192 179 187 185 197 196 175 180 181 193 195 192 195 183 184 180 189 188 195 188 163 189 185 218 207 171 207 218 201 183 193 202 206 213 183 175 181 180 183 183
316 301 316 280 214 180 193 176 161 163 166 155 181 216 237 258 285 305 294 303 298 303 288 307 300 297 280 259 245 228 268 169 194 179 201 184 185 192 183 186 194 202 185 171 179 181 180 182 173 188 177 180 193 193 179 174 179 193 201 205 214 204 161 201 186 199 186 172 164 182 204 187 205 99 106 176 210 211 191 194 193 195 191 182 181 180 183 188
306 354 306 309 33 134 172 156 157 168 168 176 199 225 233 252 287 47 301 13 289 291 310 305 290 277 279 244 174 217 160 278 166 200 191 193 183 190 187 181 184 203 190 185 163 178 177 185 167 187 181 184 192 189 185 186 181 178 194 204 203 203 191 136 82 37 69 179 198 156 211 214 204 243 222 196 191 198 201 207 207 204 192 188 193 188 187 187
348 322 292 351 32 132 170 166 162 163 169 194 227 258 270 280 260 240 267 248 295 307 295 309 344 285 323 276 166 180 168 213 171 209 172 187 182 197 182 179 185 204 217 188 169 197 167 157 162 182 184 180 197 193 188 196 199 168 203 192 181 236 222 176 172 143 194 189 182 175 198 202 205 225 187 197 205 202 195 195 197 190 184 192 195 190 185 187
332 323 268 295 17 58 170 164 154 129 161 213 234 253 288 279 252 222 200 264 280 264 283 279 311 184 269 282 161 182 161 221 152 196 177 186 176 180 182 174 182 201 208 263 211 172 182 143 170 178 182 179 191 180 198 213 222 203 193 152 176 168 188 195 198 175 188 203 182 181 205 216 209 199 148 195 200 201 199 190 180 183 190 195 191 187 184 183
311 297 241 46 4 59 162 158 165 147 175 234 263 289 277 272 293 245 228 244 261 285 269 255 275 182 269 291 60 227 166 197 172 196 171 180 184 174 184 178 176 204 204 191 219 179 195 162 157 185 182 171 183 192 193 192 192 232 199 183 205 202 206 175 201 165 194 199 217 190 188 214 199 216 193 180 199 196 197 184 193 197 193 187 182 181 181 180
345 261 109 41 31 104 145 156 153 177 229 257 289 275 299 298 295 297 283 250 271 226 235 270 219 268 221 252 241 205 203 230 177 175 209 161 174 162 184 184 178 186 188 215 219 180 175 181 157 169 181 168 191 195 197 187 174 190 201 184 189 228 192 214 186 227 192 203 196 198 189 211 203 207 219 208 170 193 188 188 198 202 183 178 175 176 178 175
340 278 60 37 66 122 146 146 174 216 240 267 266 274 294 284 303 298 299 271 250 250 267 280 290 249 324 274 212 284 203 209 189 180 204 164 160 159 193 178 184 175 184 187 216 191 168 183 163 162 177 188 192 187 198 186 187 195 192 192 183 186 176 192 185 204 233 210 200 205 221 181 190 186 208 219 204 144 165 184 183 180 171 168 166 171 170 168
319 329 47 44 130 160 177 192 223 222 261 271 297 310 294 296 290 290 309 309 236 247 219 259 247 264 281 265 37 206 221 189 188 196 192 174 171 193 168 189 187 170 177 178 190 188 231 179 163 173 180 179 188 174 211 191 186 201 198 196 189 199 200 199 184 176 208 203 337 197 205 205 81 141 189 197 119 165 159 192 175 166 162 160 159 161 167 172
351 333 58 68 158 192 217 273 207 227 257 276 293 293 285 277 259 276 296 301 298 230 263 212 269 285 0 340 254 219 219 182 188 176 164 188 154 189 169 187 182 176 177 175 189 169 41 217 157 165 161 177 185 175 201 209 180 198 207 212 193 199 198 205 189 155 188 164 195 136 205 127 96 74 91 98 115 97 141 203 173 152 153 160 159 163 170 171
330 306 210 120 180 211 279 345 328 322 316 320 323 305 321 235 264 300 294 301 290 304 237 253 280 244 296 247 249 217 201 173 178 181 181 208 157 157 167 183 177 182 195 164 193 156 201 183 163 156 163 158 168 178 193 204 200 206 194 201 195 194 196 207 220 150 206 176 194 183 183 187 101 116 107 127 154 170 154 137 155 145 153 159 162 165 167 169
293 232 244 285 195 218 300 0 300 311 319 321 323 318 337 327 245 257 293 292 277 279 274 291 239 314 267 238 246 249 243 299 158 186 193 175 146 153 165 182 188 179 193 169 255 158 234 173 181 169 164 166 173 180 187 186 194 190 199 189 194 195 188 189 198 175 208 171 213 219 136 91 113 126 120 127 145 139 119 131 137 150 154 160 162 165 166 168
3 342 13 326 14 232 213 181 247 283 306 321 322 326 333 323 323 302 270 281 264 279 273 290 307 254 271 212 216 196 215 182 239 149 179 166 150 165 173 185 190 190 173 145 247 179 244 186 191 186 187 187 184 184 181 183 178 194 189 193 188 199 194 200 195 195 197 151 194 221 269 82 125 138 118 121 147 141 137 143 150 148 155 158 163 164 165 169
285 356 349 336 323 189 283 180 245 272 300 318 303 327 313 321 317 328 162 290 131 286 304 276 270 259 212 200 205 202 196 243 221 239 172 168 155 151 170 185 192 214 175 188 249 214 212 188 198 224 201 195 166 162 168 187 188 192 189 191 189 194 194 198 203 199 195 200 204 215 231 253 178 109 97 92 111 120 133 145 152 155 157 163 161 162 163 171
332 39 350 49 297 313 333 135 345 319 300 309 275 297 296 322 331 329 324 251 318 298 252 177 265 272 242 205 218 232 206 247 181 164 171 194 154 147 158 184 200 202 211 229 210 221 193 185 153 227 213 201 136 176 167 182 186 186 191 187 190 192 193 199 205 211 195 208 192 201 212 232 229 356 46 51 59 120 159 161 159 157 157 160 164 166 171 170
26 333 279 358 304 299 299 298 302 294 294 291 305 305 322 329 324 333 333 310 307 264 197 314 307 284 289 272 248 237 228 195 197 197 185 152 167 162 162 175 212 194 207 218 220 185 226 188 172 205 216 197 183 180 172 177 179 185 184 187 189 192 196 198 203 208 211 216 224 19 351 293 298 314 17 54 60 114 131 140 151 163 164 164 165 166 171 173
22 345 334 326 284 284 286 307 289 279 303 336 341 344 330 320 322 330 333 322 309 317 97 182 247 272 268 270 230 240 229 290 53 192 48 328 138 180 160 177 160 195 195 207 198 176 247 127 135 198 206 199 199 177 188 185 181 187 186 186 188 190 192 198 207 207 230 242 261 287 293 278 231 77 48 77 102 123 140 160 168 170 160 167 169 171 174 173
333 326 324 313 313 302 323 329 335 329 309 345 349 334 326 317 324 326 316 300 254 270 303 280 287 259 256 262 263 255 269 291 300 328 360 330 138 89 227 154 210 176 191 187 200 166 235 149 191 223 211 177 183 185 185 190 186 190 189 191 189 189 193 195 205 203 212 223 236 255 260 245 128 104 117 130 149 176 173 169 171 175 170 169 178 174 174 171
337 334 314 309 293 303 315 340 328 328 339 20 311 317 318 302 311 327 321 86 179 244 264 273 305 301 235 235 249 260 289 300 305 319 315 307 312 282 297 327 319 203 174 180 176 185 195 193 204 178 226 167 174 183 177 182 183 197 200 194 191 190 198 193 206 206 218 224 228 231 239 50 55 49 330 144 171 186 197 182 177 179 176 174 177 176 174 171